Location: *
(46.0770°N, 1.6444°E)
Time: 02:09:16
(UTC+00:00)

CZ-2C R/B - Pass Details

Date: 16 December 2019
Orbit: 785 x 870 km, 98.3° (Epoch: 18 January)

Event Time Altitude Azimuth Distance (km) Brightness Sun altitude
Rises 05:51:33 0° 109° (ESE) 3,306 7.7 -16.1°
Reaches altitude 10° 05:55:05 10° 84° (E) 2,367 6.1 -15.5°
Maximum altitude 05:57:32 14° 56° (NE) 2,123 5.3 -15.1°
Drops below altitude 10° 05:59:59 10° 28° (NNE) 2,360 5.1 -14.7°
Sets 06:03:29 0° 3° (N) 3,289 5.6 -14.1°
